Location: Unspecified
(48.7670°N, 0.0000°E)
Time: 13:34:15
(UTC+00:00)

Vanguard 2 Rocket - Pass Details

Date: 23 June 2019
Orbit: 554 x 3326 km, 32.9° (Epoch: 18 July)

Event Time Altitude Azimuth Distance (km) Brightness Sun altitude
Rises 21:41:30 0° 228° (SW) 3,955 10.1 -11.3°
Reaches altitude 10° 21:44:10 10° 217° (SW) 3,302 9.6 -11.5°
Maximum altitude 21:51:31 31° 159° (SSE) 2,816 8.8 -12.1°
Drops below altitude 10° 22:02:59 10° 106° (ESE) 5,245 10.4 -13.0°
Sets 22:08:36 0° 98° (E) 6,674 11.0 -13.5°
